Time,TemperatureF,DewpointF,PressureIn,WindDirection,WindDirectionDegrees,WindSpeedMPH,WindSpeedGustMPH,Humidity,HourlyPrecipIn,Conditions,Clouds,dailyrainin,SoftwareType,DateUTC
2013-03-10 00:12:00,29.5,18.0,30.63,NNW,332,2.0,2.0,62,0.00,,,0.34,weatherlink.com 1.10,2013-03-10 05:12:00,
2013-03-10 00:27:00,29.2,16.0,30.64,NNW,331,2.0,3.0,59,0.00,,,0.34,weatherlink.com 1.10,2013-03-10 05:27:00,
2013-03-10 00:42:00,28.6,18.0,30.64,NNW,332,3.0,3.0,65,0.00,,,0.34,weatherlink.com 1.10,2013-03-10 05:42:00,
2013-03-10 00:57:00,29.2,16.0,30.64,NNW,330,1.0,2.0,57,0.00,,,0.34,weatherlink.com 1.10,2013-03-10 05:57:00,
2013-03-10 01:12:00,29.9,16.0,30.64,NW,323,3.0,3.0,57,0.00,,,0.00,weatherlink.com 1.10,2013-03-10 06:12:00,
2013-03-10 01:27:00,30.2,16.0,30.63,NNW,329,2.0,2.0,56,0.00,,,0.00,weatherlink.com 1.10,2013-03-10 06:27:00,
2013-03-10 01:42:00,30.2,16.0,30.62,NW,321,1.0,2.0,56,0.00,,,0.00,weatherlink.com 1.10,2013-03-10 06:42:00,
2013-03-10 01:57:00,30.5,15.0,30.62,NW,304,0.0,2.0,53,0.00,,,0.00,weatherlink.com 1.10,2013-03-10 06:57:00,
2013-03-10 03:12:00,30.5,15.0,30.61,NW,305,1.0,2.0,52,0.00,,,0.00,weatherlink.com 1.10,2013-03-10 07:12:00,
2013-03-10 03:27:00,30.5,15.0,30.61,WNW,294,1.0,3.0,53,0.00,,,0.00,weatherlink.com 1.10,2013-03-10 07:27:00,
2013-03-10 03:42:00,30.2,16.0,30.62,NW,326,1.0,3.0,56,0.00,,,0.00,weatherlink.com 1.10,2013-03-10 07:42:00,
2013-03-10 03:57:00,29.6,16.0,30.62,NW,321,2.0,3.0,57,0.00,,,0.00,weatherlink.com 1.10,2013-03-10 07:57:00,
2013-03-10 04:12:00,28.9,16.0,30.62,NNW,333,3.0,3.0,59,0.00,,,0.00,weatherlink.com 1.10,2013-03-10 08:12:00,
2013-03-10 04:27:00,29.9,15.0,30.61,NW,326,1.0,3.0,54,0.00,,,0.00,weatherlink.com 1.10,2013-03-10 08:27:00,
2013-03-10 04:42:00,30.9,15.0,30.62,WSW,245,0.0,1.0,51,0.00,,,0.00,weatherlink.com 1.10,2013-03-10 08:42:00,
2013-03-10 04:57:00,30.3,15.0,30.61,WNW,303,2.0,3.0,54,0.00,,,0.00,weatherlink.com 1.10,2013-03-10 08:57:00,
2013-03-10 05:12:00,29.9,15.0,30.61,NW,325,1.0,3.0,55,0.00,,,0.00,weatherlink.com 1.10,2013-03-10 09:12:00,
2013-03-10 05:27:00,30.2,16.0,30.62,NW,321,2.0,2.0,55,0.00,,,0.00,weatherlink.com 1.10,2013-03-10 09:27:00,
2013-03-10 05:42:00,30.7,16.0,30.62,NW,319,0.0,1.0,55,0.00,,,0.00,weatherlink.com 1.10,2013-03-10 09:42:00,
2013-03-10 05:57:00,29.4,16.0,30.62,NW,323,0.0,2.0,57,0.00,,,0.00,weatherlink.com 1.10,2013-03-10 09:57:00,
2013-03-10 06:12:00,29.8,15.0,30.62,WNW,301,1.0,3.0,55,0.00,,,0.00,weatherlink.com 1.10,2013-03-10 10:12:00,
2013-03-10 06:27:00,30.1,16.0,30.62,NW,311,1.0,3.0,55,0.00,,,0.00,weatherlink.com 1.10,2013-03-10 10:27:00,
2013-03-10 06:42:00,29.7,16.0,30.63,NW,312,0.0,1.0,56,0.00,,,0.00,weatherlink.com 1.10,2013-03-10 10:42:00,
2013-03-10 06:57:00,29.5,16.0,30.63,NNW,327,0.0,3.0,57,0.00,,,0.00,weatherlink.com 1.10,2013-03-10 10:57:00,
2013-03-10 07:12:00,29.3,16.0,30.63,SSW,205,0.0,2.0,58,0.00,,,0.00,weatherlink.com 1.10,2013-03-10 11:12:00,
2013-03-10 07:27:00,28.6,16.0,30.64,NNW,332,0.0,2.0,60,0.00,,,0.00,weatherlink.com 1.10,2013-03-10 11:27:00,
2013-03-10 07:42:00,28.8,17.0,30.63,SSW,203,0.0,1.0,61,0.00,,,0.00,weatherlink.com 1.10,2013-03-10 11:42:00,
2013-03-10 07:57:00,29.1,17.0,30.63,SW,214,2.0,2.0,61,0.00,,,0.00,weatherlink.com 1.10,2013-03-10 11:57:00,
2013-03-10 08:12:00,30.6,18.0,30.63,SSW,211,0.0,2.0,60,0.00,,,0.00,weatherlink.com 1.10,2013-03-10 12:12:00,
2013-03-10 08:27:00,34.8,20.0,30.63,SSW,208,2.0,2.0,55,0.00,,,0.00,weatherlink.com 1.10,2013-03-10 12:27:00,
2013-03-10 08:42:00,36.5,19.0,30.62,SW,228,0.0,3.0,50,0.00,,,0.00,weatherlink.com 1.10,2013-03-10 12:42:00,
2013-03-10 08:57:00,38.3,20.0,30.62,SSW,212,0.0,3.0,49,0.00,,,0.00,weatherlink.com 1.10,2013-03-10 12:57:00,
2013-03-10 09:12:00,40.3,21.0,30.63,SW,217,2.0,4.0,46,0.00,,,0.00,weatherlink.com 1.10,2013-03-10 13:12:00,
2013-03-10 09:27:00,39.8,21.0,30.63,South,184,3.0,5.0,47,0.00,,,0.00,weatherlink.com 1.10,2013-03-10 13:27:00,
2013-03-10 09:42:00,40.4,22.0,30.62,SW,217,1.0,4.0,48,0.00,,,0.00,weatherlink.com 1.10,2013-03-10 13:42:00,
2013-03-10 09:57:00,41.2,22.0,30.61,SE,143,1.0,4.0,47,0.00,,,0.00,weatherlink.com 1.10,2013-03-10 13:57:00,
2013-03-10 10:12:00,42.6,23.0,30.61,SW,217,2.0,5.0,46,0.00,,,0.00,weatherlink.com 1.10,2013-03-10 14:12:00,
2013-03-10 10:27:00,43.3,24.0,30.61,SW,229,1.0,5.0,46,0.00,,,0.00,weatherlink.com 1.10,2013-03-10 14:27:00,
2013-03-10 10:42:00,43.9,23.0,30.60,SW,219,5.0,8.0,43,0.00,,,0.00,weatherlink.com 1.10,2013-03-10 14:42:00,
2013-03-10 10:58:00,44.6,23.0,30.60,ENE,72,3.0,6.0,42,0.00,,,0.00,weatherlink.com 1.10,2013-03-10 14:58:00,
2013-03-10 11:13:00,45.6,22.0,30.60,SSE,159,4.0,8.0,40,0.00,,,0.00,weatherlink.com 1.10,2013-03-10 15:13:00,
2013-03-10 11:28:00,46.6,23.0,30.59,SSE,160,6.0,8.0,39,0.00,,,0.00,weatherlink.com 1.10,2013-03-10 15:28:00,
2013-03-10 11:43:00,47.3,21.0,30.59,SW,228,4.0,9.0,35,0.00,,,0.00,weatherlink.com 1.10,2013-03-10 15:43:00,
2013-03-10 11:58:00,48.4,22.0,30.59,South,183,5.0,8.0,36,0.00,,,0.00,weatherlink.com 1.10,2013-03-10 15:58:00,
2013-03-10 12:13:00,48.7,21.0,30.58,SSW,200,4.0,10.0,34,0.00,,,0.00,weatherlink.com 1.10,2013-03-10 16:13:00,
2013-03-10 12:28:00,49.6,21.0,30.57,SW,222,7.0,13.0,32,0.00,,,0.00,weatherlink.com 1.10,2013-03-10 16:28:00,
2013-03-10 12:43:00,49.1,20.0,30.57,SSW,210,2.0,10.0,32,0.00,,,0.00,weatherlink.com 1.10,2013-03-10 16:43:00,
2013-03-10 12:58:00,49.7,21.0,30.57,SSE,158,4.0,9.0,32,0.00,,,0.00,weatherlink.com 1.10,2013-03-10 16:58:00,
2013-03-10 13:13:00,50.7,21.0,30.57,SSE,167,6.0,6.0,31,0.00,,,0.00,weatherlink.com 1.10,2013-03-10 17:13:00,
2013-03-10 13:28:00,50.4,21.0,30.56,SW,222,2.0,9.0,31,0.00,,,0.00,weatherlink.com 1.10,2013-03-10 17:28:00,
2013-03-10 13:43:00,52.0,22.0,30.56,SW,214,2.0,7.0,31,0.00,,,0.00,weatherlink.com 1.10,2013-03-10 17:43:00,
2013-03-10 13:58:00,53.2,21.0,30.55,SSE,160,3.0,8.0,28,0.00,,,0.00,weatherlink.com 1.10,2013-03-10 17:58:00,
2013-03-10 14:13:00,53.2,20.0,30.54,SW,219,4.0,9.0,27,0.00,,,0.00,weatherlink.com 1.10,2013-03-10 18:13:00,
2013-03-10 14:28:00,53.2,24.0,30.53,SW,219,2.0,10.0,32,0.00,,,0.00,weatherlink.com 1.10,2013-03-10 18:28:00,
2013-03-10 14:43:00,52.5,22.0,30.53,ESE,108,6.0,9.0,30,0.00,,,0.00,weatherlink.com 1.10,2013-03-10 18:43:00,
2013-03-10 14:58:00,52.4,21.0,30.53,WSW,242,2.0,7.0,29,0.00,,,0.00,weatherlink.com 1.10,2013-03-10 18:58:00,
2013-03-10 15:13:00,52.4,21.0,30.52,SW,218,2.0,9.0,29,0.00,,,0.00,weatherlink.com 1.10,2013-03-10 19:13:00,
2013-03-10 15:28:00,52.4,20.0,30.52,SW,222,2.0,9.0,28,0.00,,,0.00,weatherlink.com 1.10,2013-03-10 19:28:00,
2013-03-10 15:43:00,52.5,21.0,30.51,SSE,152,1.0,8.0,29,0.00,,,0.00,weatherlink.com 1.10,2013-03-10 19:43:00,
2013-03-10 15:58:00,52.2,21.0,30.51,SW,215,2.0,9.0,29,0.00,,,0.00,weatherlink.com 1.10,2013-03-10 19:58:00,
2013-03-10 16:13:00,51.6,22.0,30.50,SSW,205,1.0,10.0,31,0.00,,,0.00,weatherlink.com 1.10,2013-03-10 20:13:00,
2013-03-10 16:28:00,50.6,22.0,30.51,SSE,162,3.0,10.0,32,0.00,,,0.00,weatherlink.com 1.10,2013-03-10 20:28:00,
2013-03-10 16:43:00,49.7,20.0,30.50,SSW,204,6.0,8.0,31,0.00,,,0.00,weatherlink.com 1.10,2013-03-10 20:43:00,
2013-03-10 16:58:00,49.7,21.0,30.50,South,177,3.0,8.0,33,0.00,,,0.00,weatherlink.com 1.10,2013-03-10 20:58:00,
2013-03-10 17:14:00,48.6,24.0,30.50,SW,226,9.0,10.0,38,0.00,,,0.00,weatherlink.com 1.10,2013-03-10 21:14:00,
2013-03-10 17:28:00,48.0,23.0,30.50,SW,235,3.0,9.0,37,0.00,,,0.00,weatherlink.com 1.10,2013-03-10 21:28:00,
2013-03-10 17:43:00,47.8,24.0,30.50,SW,219,0.0,9.0,39,0.00,,,0.00,weatherlink.com 1.10,2013-03-10 21:43:00,
2013-03-10 17:58:00,46.9,24.0,30.50,SW,221,1.0,7.0,40,0.00,,,0.00,weatherlink.com 1.10,2013-03-10 21:58:00,
2013-03-10 18:13:00,46.1,25.0,30.50,SW,232,1.0,8.0,44,0.00,,,0.00,weatherlink.com 1.10,2013-03-10 22:13:00,
2013-03-10 18:28:00,45.5,26.0,30.50,SSW,201,0.0,8.0,46,0.00,,,0.00,weatherlink.com 1.10,2013-03-10 22:28:00,
2013-03-10 18:43:00,44.7,25.0,30.51,SSE,156,1.0,7.0,47,0.00,,,0.00,weatherlink.com 1.10,2013-03-10 22:43:00,
2013-03-10 18:58:00,43.7,26.0,30.52,SSW,209,2.0,5.0,50,0.00,,,0.00,weatherlink.com 1.10,2013-03-10 22:58:00,
2013-03-10 19:13:00,43.1,26.0,30.50,SW,217,7.0,7.0,51,0.00,,,0.00,weatherlink.com 1.10,2013-03-10 23:13:00,
2013-03-10 19:28:00,42.8,26.0,30.51,SW,218,1.0,4.0,52,0.00,,,0.00,weatherlink.com 1.10,2013-03-10 23:28:00,
2013-03-10 19:44:00,42.3,27.0,30.50,SSW,211,1.0,8.0,54,0.00,,,0.00,weatherlink.com 1.10,2013-03-10 23:44:00,
2013-03-10 19:59:00,42.3,27.0,30.50,SSW,202,4.0,9.0,54,0.00,,,0.00,weatherlink.com 1.10,2013-03-10 23:59:00,
2013-03-10 20:14:00,41.4,27.0,30.50,SSW,212,0.0,5.0,56,0.00,,,0.00,weatherlink.com 1.10,2013-03-11 00:14:00,
2013-03-10 20:29:00,40.9,27.0,30.50,South,170,1.0,3.0,58,0.00,,,0.00,weatherlink.com 1.10,2013-03-11 00:29:00,
2013-03-10 20:44:00,41.0,27.0,30.51,SSW,200,0.0,3.0,58,0.00,,,0.00,weatherlink.com 1.10,2013-03-11 00:44:00,
2013-03-10 20:59:00,40.4,28.0,30.52,NNW,335,0.0,4.0,61,0.00,,,0.00,weatherlink.com 1.10,2013-03-11 00:59:00,
2013-03-10 21:14:00,39.8,28.0,30.50,South,184,2.0,6.0,62,0.00,,,0.00,weatherlink.com 1.10,2013-03-11 01:14:00,
2013-03-10 21:29:00,40.4,28.0,30.50,NW,312,1.0,3.0,61,0.00,,,0.00,weatherlink.com 1.10,2013-03-11 01:29:00,
2013-03-10 21:44:00,39.9,29.0,30.50,SW,235,0.0,2.0,64,0.00,,,0.00,weatherlink.com 1.10,2013-03-11 01:44:00,
2013-03-10 21:59:00,39.9,28.0,30.50,SW,222,1.0,9.0,63,0.00,,,0.00,weatherlink.com 1.10,2013-03-11 01:59:00,
2013-03-10 22:14:00,40.8,28.0,30.50,SSW,205,4.0,9.0,60,0.00,,,0.00,weatherlink.com 1.10,2013-03-11 02:14:00,
2013-03-10 22:29:00,41.3,27.0,30.50,SW,221,7.0,7.0,58,0.00,,,0.00,weatherlink.com 1.10,2013-03-11 02:29:00,
2013-03-10 22:59:00,41.2,28.0,30.51,SSW,208,1.0,5.0,59,0.00,,,0.00,weatherlink.com 1.10,2013-03-11 02:59:00,
2013-03-10 23:14:00,40.1,28.0,30.52,SSE,165,0.0,2.0,62,0.00,,,0.00,weatherlink.com 1.10,2013-03-11 03:14:00,
2013-03-10 23:29:00,41.9,27.0,30.52,NW,324,1.0,10.0,55,0.00,,,0.00,weatherlink.com 1.10,2013-03-11 03:29:00,
2013-03-10 23:44:00,41.2,28.0,30.51,South,187,1.0,5.0,60,0.00,,,0.00,weatherlink.com 1.10,2013-03-11 03:44:00,
2013-03-10 23:59:00,40.4,29.0,30.51,SW,221,2.0,6.0,64,0.00,,,0.00,weatherlink.com 1.10,2013-03-11 03:59:00,